Location: Sevilla
(37.3933°N, 5.9839°W)
Time: 04:08:25
(UTC+02:00)

Courier 1B Rocket - Visible Passes

Search period start: 13 June 2024 00:00
Search period end: 23 June 2024 00:00
Orbit: 920 x 1201 km, 28.3° (Epoch: 12 June)

Date Brightness Start Highest point End Pass type
(mag) Time Alt. Az. Time Alt. Az. Time Alt. Az.
14 Jun 7.0 06:33:31 10° SSW 06:38:19 19° SSE 06:43:15 10° ESE visible
15 Jun 7.1 05:34:27 10° S 05:37:22 13° SSE 05:40:20 10° SE visible
16 Jun 6.7 06:23:25 10° SSW 06:28:56 24° SSE 06:34:43 10° ESE visible
17 Jun 6.8 05:24:53 14° S 05:27:58 18° SSE 05:32:36 10° ESE visible
18 Jun 7.1 04:27:20 12° SSE 04:27:20 12° SSE 04:29:33 10° SE visible
18 Jun 6.3 06:13:42 10° SW 06:19:37 29° SSE 06:25:53 10° ESE visible
19 Jun 6.4 05:16:08 19° S 05:18:38 23° SSE 05:24:06 10° ESE visible
20 Jun 6.8 04:18:34 17° SE 04:18:34 17° SE 04:21:57 10° ESE visible
20 Jun 6.1 06:04:55 13° SW 06:10:22 34° SSE 06:16:52 10° ESE visible
21 Jun 6.1 05:07:21 24° S 05:09:21 28° SSE 05:15:18 10° ESE visible
22 Jun 6.5 04:09:47 21° SE 04:09:47 21° SE 04:13:32 10° ESE visible
22 Jun 5.8 05:56:07 15° SW 06:01:11 38° S 06:07:46 10° ESE visible
